CW6780 Weather Reports


Display with metric or nautical units.
time (UTC)temp
F
wind
direction
speed
MPH
gust
MPH
rain 1hr
in
rain 24hr
in
rain mn
in
humidity
%
barometer
mb
20210921135528 51 107 1.0 3.0 0.00 0.00 0.00 92 1021.6
20210921133527 51 107 1.0 4.0 0.00 0.00 0.00 92 1021.7
20210921130527 51 107 2.0 4.0 0.00 0.00 0.00 90 1022.0
20210921124527 51 108 2.0 4.0 0.00 0.00 0.00 90 1022.1
20210921123526 51 108 2.0 4.0 0.00 0.00 0.00 90 1022.1
20210921120527 51 136 1.0 4.0 0.00 0.00 0.00 89 1022.3
20210921115528 52 143 1.0 3.0 0.00 0.00 0.00 89 1022.5
20210921114533 52 143 1.0 3.0 0.00 0.00 0.00 88 1022.6
20210921112528 52 143 1.0 3.0 0.00 0.00 0.00 87 1022.6
20210921111527 52 143 1.0 3.0 0.00 0.00 0.00 86 1022.7
20210921104527 53 143 2.0 4.0 0.00 0.00 0.00 84 1023.1
20210921101527 53 143 1.0 2.0 0.00 0.00 0.00 84 1023.3
20210921094527 53 143 0.0 2.0 0.00 0.00 0.00 85 1023.6
20210921091527 53 143 2.0 3.0 0.00 0.00 0.00 84 1023.9
20210921085527 54 143 0.0 2.0 0.00 0.00 0.00 83 1023.7
20210921082527 54 143 0.0 2.0 0.00 0.00 0.00 82 1024.2
20210921081527 54 143 0.0 3.0 0.00 0.00 0.00 82 1024.3
20210921074527 55 143 0.0 1.0 0.00 0.00 0.00 80 1024.4
20210921071527 55 143 1.0 3.0 0.00 0.00 0.00 79 1024.7
20210921070528 55 143 1.0 2.0 0.00 0.00 0.00 80 1024.7
20210921065527 55 143 1.0 3.0 0.00 0.00 0.00 80 1024.7
20210921064527 55 143 1.0 3.0 0.00 0.00 0.00 81 1024.7
20210921063528 55 143 1.0 3.0 0.00 0.00 0.00 81 1024.8
20210921062527 55 143 1.0 3.0 0.00 0.00 0.00 81 1024.8
20210921055527 54 143 0.0 1.0 0.00 0.00 0.00 83 1025.0
20210921054528 54 143 0.0 0.0 0.00 0.00 0.00 83 1025.2
20210921052527 54 143 0.0 2.0 0.00 0.00 0.00 84 1025.2
20210921051528 54 143 0.0 1.0 0.00 0.00 0.00 84 1025.2
20210921044528 55 143 0.0 3.0 0.00 0.00 0.00 82 1025.6
20210921043527 56 143 0.0 1.0 0.00 0.00 0.00 81 1025.6
20210921042527 56 143 0.0 1.0 0.00 0.00 0.00 80 1025.6
20210921041528 56 143 0.0 2.0 0.00 0.00 0.00 79 1025.7
20210921040527 56 143 1.0 3.0 0.00 0.00 0.00 79 1025.6
20210921035527 56 147 0.0 2.0 0.00 0.00 0.00 79 1025.6
20210921034528 57 147 0.0 1.0 0.00 0.00 0.00 79 1025.3
20210921032527 57 147 0.0 0.0 0.00 0.00 0.00 78 1025.3
20210921031528 57 147 0.0 0.0 0.00 0.00 0.00 78 1025.2
20210921025527 58 147 0.0 0.0 0.00 0.00 0.00 75 1025.2
20210921024528 59 147 0.0 0.0 0.00 0.00 0.00 73 1025.2
20210921023527 59 147 0.0 0.0 0.00 0.00 0.00 72 1025.2
20210921022527 60 147 0.0 0.0 0.00 0.00 0.00 70 1025.2
20210921021528 61 147 0.0 0.0 0.00 0.00 0.00 69 1025.3
20210921020527 62 147 0.0 2.0 0.00 0.00 0.00 68 1025.2
20210921015527 62 147 0.0 0.0 0.00 0.00 0.00 62 1025.2
20210921013527 63 147 0.0 0.0 0.00 0.00 0.00 61 1025.0
20210921012527 64 147 0.0 1.0 0.00 0.00 0.00 58 1024.9
20210921010527 65 147 0.0 2.0 0.00 0.00 0.00 55 1025.1
20210921005527 65 147 0.0 2.0 0.00 0.00 0.00 57 1025.2
20210921003527 66 147 0.0 3.0 0.00 0.00 0.00 52 1025.3
20210921000527 66 147 1.0 4.0 0.00 0.00 0.00 56 1025.3
20210920235528 65 147 1.0 4.0 0.00 0.00 0.00 57 1025.3
20210920234527 65 165 1.0 5.0 0.00 0.00 0.00 60 1025.4
20210920233527 64 171 1.0 6.0 0.00 0.00 0.00 59 1025.7
20210920231527 64 170 2.0 8.0 0.00 0.00 0.00 60 1025.7
20210920223527 63 173 2.0 7.0 0.00 0.00 0.00 63 1025.7
20210920222527 63 175 3.0 8.0 0.00 0.00 0.00 64 1025.9
20210920220527 64 162 2.0 7.0 0.00 0.00 0.00 64 1025.7
20210920214528 64 172 0.0 2.0 0.00 0.00 0.00 65 1025.7
20210920213527 65 173 1.0 6.0 0.00 0.00 0.00 64 1025.7
20210920211528 64 173 1.0 6.0 0.00 0.00 0.00 65 1025.7
20210920210527 64 173 2.0 8.0 0.00 0.00 0.00 65 1025.7
20210920205527 64 161 1.0 6.0 0.00 0.00 0.00 65 1025.8
20210920203527 64 99 0.0 3.0 0.00 0.00 0.00 65 1025.8
20210920202527 64 73 1.0 5.0 0.00 0.00 0.00 66 1025.7
20210920200527 63 87 1.0 3.0 0.00 0.00 0.00 69 1025.8
20210920195527 63 163 1.0 6.0 0.00 0.00 0.00 69 1025.8
20210920194528 63 164 1.0 3.0 0.00 0.00 0.00 71 1025.8
20210920191528 62 120 1.0 7.0 0.00 0.00 0.00 70 1025.7
20210920190527 61 167 3.0 9.0 0.00 0.00 0.00 69 1025.5
20210920184528 60 164 2.0 7.0 0.00 0.00 0.00 74 1025.7
20210920182527 59 176 1.0 7.0 0.00 0.00 0.00 77 1025.3
20210920181528 59 187 2.0 7.0 0.00 0.00 0.00 78 1025.3
20210920180527 59 185 1.0 5.0 0.00 0.00 0.00 78 1025.3
20210920174528 58 196 3.0 8.0 0.00 0.00 0.00 78 1025.2
20210920172527 57 196 3.0 8.0 0.00 0.00 0.00 79 1025.3
20210920164528 54 208 3.0 7.0 0.00 0.00 0.00 90 1024.9
20210920163527 54 180 3.0 8.0 0.00 0.00 0.00 91 1025.1
20210920162527 54 194 4.0 8.0 0.00 0.00 0.00 92 1024.9
20210920161528 53 201 3.0 5.0 0.00 0.00 0.00 93 1024.7
20210920160527 53 202 3.0 7.0 0.00 0.00 0.00 93 1024.7
20210920155527 53 204 2.0 5.0 0.00 0.00 0.00 93 1024.7
20210920154528 53 208 2.0 3.0 0.00 0.00 0.00 93 1024.4
20210920153527 52 209 2.0 5.0 0.00 0.00 0.00 93 1024.2
20210920152528 52 243 1.0 5.0 0.00 0.00 0.00 93 1024.2
20210920151527 52 243 0.0 3.0 0.00 0.00 0.00 92 1024.2
20210920150528 52 243 0.0 0.0 0.00 0.00 0.00 92 1024.1
20210920145527 52 243 0.0 2.0 0.00 0.00 0.00 92 1024.0
20210920142527 52 243 1.0 3.0 0.00 0.00 0.00 91 1023.5